DL8NDG-13 Weather Reports


Display with metric or nautical units.
time (UTC)temp
F
wind
direction
speed
MPH
gust
MPH
rain 1hr
in
rain 24hr
in
rain mn
in
humidity
%
barometer
mb
20260831151549 75 218 10.0 20.0 0.00 0.41 0.41 50 1014.2
20260831150045 74 171 9.0 21.0 0.00 0.41 0.41 52 1014.0
20260831144551 75 182 6.0 15.0 0.00 0.41 0.41 53 1014.3
20260831143043 75 175 7.0 14.0 0.00 0.41 0.41 53 1014.3
20260831141536 76 156 11.0 20.0 0.00 0.41 0.41 51 1014.3
20260831140035 76 178 6.0 20.0 0.00 0.41 0.41 52 1014.1
20260831134533 76 360 10.0 23.0 0.00 0.41 0.41 52 1014.2
20260831133032 75 188 11.0 20.0 0.00 0.41 0.41 53 1014.2
20260831131530 75 171 14.0 22.0 0.00 0.41 0.41 52 1014.3
20260831130029 75 181 7.0 22.0 0.00 0.41 0.41 53 1014.4
20260831124528 75 182 13.0 21.0 0.00 0.41 0.41 54 1014.4
20260831123025 74 174 5.0 12.0 0.00 0.41 0.41 57 1014.5
20260831121533 74 194 9.0 18.0 0.00 0.41 0.41 57 1014.5
20260831120025 73 176 7.0 13.0 0.00 0.41 0.41 60 1014.5
20260831114529 72 360 6.0 17.0 0.00 0.41 0.41 61 1014.6
20260831113021 74 175 9.0 15.0 0.00 0.41 0.41 57 1014.6
20260831111518 73 177 8.0 21.0 0.00 0.41 0.41 60 1014.6
20260831110015 72 360 9.0 16.0 0.00 0.41 0.41 61 1014.8
20260831104512 71 179 7.0 15.0 0.00 0.41 0.41 62 1014.7
20260831103008 71 360 6.0 20.0 0.00 0.41 0.41 64 1014.6
20260831101507 70 171 7.0 20.0 0.00 0.41 0.41 67 1014.8
20260831100010 70 192 6.0 15.0 0.00 0.41 0.41 69 1014.9
20260831094501 69 360 6.0 12.0 0.00 0.41 0.41 73 1014.9
20260831093100 68 171 8.0 17.0 0.00 0.41 0.41 72 1015.0
20260831091555 67 360 4.0 16.0 0.00 0.41 0.41 77 1014.9
20260831090053 67 185 5.0 16.0 0.00 0.41 0.41 75 1014.9
20260831084602 67 186 6.0 16.0 0.00 0.41 0.41 76 1014.8
20260831083050 67 360 7.0 15.0 0.00 0.41 0.41 76 1014.7
20260831081609 67 171 6.0 15.0 0.00 0.41 0.41 81 1014.5
20260831080043 66 190 7.0 11.0 0.00 0.41 0.41 83 1014.7
20260831074545 65 184 7.0 14.0 0.00 0.41 0.41 84 1014.7
20260831073101 64 360 4.0 14.0 0.00 0.41 0.41 83 1014.6
20260831071533 63 360 4.0 9.0 0.00 0.41 0.41 79 1014.5
20260831070034 63 175 5.0 10.0 0.00 0.41 0.41 76 1014.3
20260831064537 62 360 7.0 10.0 0.00 0.41 0.41 74 1014.2
20260831063027 62 360 5.0 10.0 0.00 0.41 0.41 75 1014.1
20260831061532 62 166 4.0 10.0 0.00 0.41 0.41 73 1013.9
20260831060021 62 360 6.0 12.0 0.00 0.41 0.41 72 1013.5
20260831054518 62 182 5.0 9.0 0.00 0.41 0.41 71 1013.5
20260831053021 62 360 0.0 0.0 0.00 0.41 0.41 71 1013.4
20260831051515 62 198 0.0 0.0 0.00 0.41 0.41 71 1013.2
20260831050032 62 191 0.0 0.0 0.00 0.41 0.41 72 1013.0
20260831044510 62 191 0.0 0.0 0.00 0.41 0.41 73 1012.8
20260831043010 62 176 0.0 0.0 0.00 0.41 0.41 74 1012.5
20260831041507 61 174 0.0 0.0 0.01 0.41 0.41 75 1012.3
20260831040020 61 202 0.0 0.0 0.01 0.41 0.41 75 1012.5
20260831034507 61 173 0.0 0.0 0.05 0.41 0.41 76 1012.3
20260831033005 61 191 0.0 0.0 0.10 0.41 0.41 77 1012.4
20260831031503 61 177 0.0 0.0 0.40 0.40 0.40 78 1012.3
20260831030010 61 163 3.0 10.0 0.40 0.40 0.40 79 1012.3
20260831024501 61 168 3.0 8.0 0.36 0.36 0.36 81 1012.5
20260831023100 61 158 8.0 15.0 0.31 0.31 0.31 81 1012.5
20260831021600 61 188 0.0 0.0 0.00 0.00 0.00 82 1010.9
20260831020057 61 188 0.0 0.0 0.00 0.00 0.00 82 1010.9
20260831014556 60 205 0.0 0.0 0.00 0.00 0.00 82 1011.3
20260831013154 60 189 0.0 0.0 0.00 0.00 0.00 82 1011.4
20260831011551 60 205 0.0 0.0 0.00 0.00 0.00 83 1011.5
20260831010048 59 207 0.0 0.0 0.00 0.00 0.00 83 1011.7
20260831004547 59 191 0.0 0.0 0.00 0.00 0.00 84 1012.0
20260831003043 60 190 0.0 0.0 0.00 0.00 0.00 84 1012.0
20260831001541 60 190 0.0 0.0 0.00 0.00 0.00 84 1012.3
20260831000053 60 190 0.0 0.0 0.00 0.00 0.00 84 1012.5
20260830234546 60 190 0.0 0.0 0.00 0.00 0.00 84 1012.5
20260830233053 60 190 0.0 0.0 0.00 0.00 0.00 84 1012.7
20260830231534 60 188 0.0 0.0 0.00 0.00 0.00 84 1012.9
20260830230034 60 205 0.0 0.0 0.00 0.00 0.00 84 1012.8
20260830224533 60 190 0.0 0.0 0.00 0.00 0.00 84 1012.9
20260830223031 60 191 0.0 0.0 0.00 0.00 0.00 85 1013.0
20260830221529 61 190 0.0 0.0 0.00 0.00 0.00 85 1013.0
20260830220050 61 190 0.0 0.0 0.00 0.00 0.00 84 1013.1
20260830214527 61 188 0.0 0.0 0.00 0.00 0.00 85 1013.3
20260830213029 61 187 0.0 0.0 0.00 0.00 0.00 84 1013.3
20260830211528 62 205 0.0 0.0 0.00 0.00 0.00 84 1013.0
20260830210025 62 191 0.0 0.0 0.00 0.00 0.00 83 1013.1
20260830204522 62 207 0.0 0.0 0.00 0.00 0.00 83 1013.1
20260830203021 63 190 0.0 0.0 0.00 0.00 0.00 83 1013.2
20260830201521 63 205 0.0 0.0 0.00 0.00 0.00 82 1013.3
20260830200032 64 205 0.0 0.0 0.00 0.00 0.00 81 1013.3
20260830194520 65 190 0.0 0.0 0.00 0.00 0.00 80 1013.4
20260830193020 65 190 0.0 0.0 0.00 0.00 0.00 79 1013.3
20260830191604 67 189 0.0 0.0 0.00 0.00 0.00 77 1013.3
20260830190019 68 207 0.0 0.0 0.00 0.00 0.00 75 1013.2
20260830184517 69 191 0.0 0.0 0.00 0.00 0.00 73 1013.2
20260830183016 70 190 0.0 0.0 0.00 0.00 0.00 70 1013.0
20260830181515 71 186 0.0 0.0 0.00 0.00 0.00 67 1013.0
20260830180015 72 188 0.0 0.0 0.00 0.00 0.00 66 1012.9
20260830174514 73 207 0.0 4.0 0.00 0.00 0.00 64 1012.5
20260830173014 74 182 3.0 8.0 0.00 0.00 0.00 62 1012.4
20260830171513 75 173 3.0 9.0 0.00 0.00 0.00 61 1012.5
20260830170011 75 170 5.0 10.0 0.00 0.00 0.00 61 1012.6
20260830164511 75 360 4.0 11.0 0.00 0.00 0.00 60 1012.5
20260830163025 76 205 4.0 9.0 0.00 0.00 0.00 59 1012.6
20260830161508 77 360 4.0 9.0 0.00 0.00 0.00 57 1012.5
20260830160007 76 360 6.0 10.0 0.00 0.00 0.00 59 1012.5
20260830154507 77 360 6.0 12.0 0.00 0.00 0.00 58 1012.6
20260830153004 77 165 8.0 14.0 0.00 0.00 0.00 57 1012.7